Location: Zagreb
(45.8000°N, 16.0000°E)
Time: 17:08:58
(UTC+02:00)

Envisat - Visible Passes

Search period start: 26 June 2022 00:00
Search period end: 06 July 2022 00:00
Orbit: 764 x 765 km, 98.2° (Epoch: 26 June)

Date Brightness Start Highest point End Pass type
(mag) Time Alt. Az. Time Alt. Az. Time Alt. Az.
26 Jun 5.6 04:15:35 10° NE 04:18:42 16° E 04:21:49 10° SE visible
29 Jun 5.8 04:04:35 10° ENE 04:06:46 13° E 04:08:56 10° ESE visible
01 Jul 5.4 04:28:21 10° NE 04:32:14 22° E 04:36:05 10° SE visible
04 Jul 5.6 04:17:01 10° NE 04:20:19 17° E 04:23:35 10° SE visible
